Location: Bourg-d�Oueil
(42.8588°N, 0.4991°E)
Time: 15:17:44
(UTC+00:00)

BREEZE-M DEB (TANK) - Pass Details

Date: 16 June 2021
Orbit: 333 x 16573 km, 49.3° (Epoch: 31 July)

Event Time Altitude Azimuth Distance (km) Brightness Sun altitude
Rises 22:42:55 0° 235° (SW) 8,679 8.2 -21.5°
Reaches altitude 10° 22:51:09 10° 235° (SW) 5,486 7.2 -21.9°
Maximum altitude 23:02:17 79° 151° (SSE) 870 3.1 -22.5°
Drops below altitude 10° 23:05:38 10° 64° (ENE) 1,742 5.0 -22.6°
Sets 23:06:59 0° 63° (ENE) 2,386 5.8 -22.7°
